Regional Weather Roundup
Issued by NWS Wakefield, VA

Home | Current Version | Previous Version | Text Only | Print | Product List | Glossary Off
Versions: 1 2 3 4 5 6 7 8 9 10 11 12 13 14 15 16 17 18 19 20 21 22 23 24 25 26 27

000
ASUS41 KAKQ 201710
RWRAKQ

REGIONAL WEATHER ROUNDUP
NATIONAL WEATHER SERVICE WAKEFIELD VA
100 PM EDT SUN APR 20 2014

Note: "fair" indicates few or no clouds below 12,000 feet with no
significant weather and/or obstructions to visibility. * = Denotes
station may not report precipitation (e.g., rain,snow,etc.),
thunder or fog.

VAZ042-051-052>054-056-201800-
NORTHERN VIRGINIA

CITY           SKY/WX    TMP DP  RH WIND       PRES   REMARKS
WASH NATIONAL  PTSUNNY   62  37  39 NE12      30.42F
DULLES         PTSUNNY   58  37  45 VRB6      30.41F
FORT BELVOIR   MOSUNNY   61  35  37 E8        30.40F
QUANTICO       MOSUNNY   60  39  45 NE15      30.40F
FREDERICKSBRG* SUNNY     64  37  36 NE10G20   30.37F
STAFFORD*      SUNNY     63  40  43 E9G16     30.42F
WARRENTON      MOSUNNY   63  44  49 NE8       30.38F
CULPEPER*      MOSUNNY   64  32  29 NE9G16    30.39F
MANASSAS*      NOT AVBL
LEESBURG*      PTSUNNY   59  37  44 E12       30.42F
WINCHESTER     MOSUNNY   61  32  33 E7        30.39F
$$

VAZ048-049-060>072-079>083-201800-
CENTRAL AND SOUTH CENTRAL VIRGINIA...AND NORTH CENTRAL NORTH CAROLINA

CITY           SKY/WX    TMP DP  RH WIND       PRES   REMARKS
RICHMOND       PTSUNNY   65  36  34 NE16G26   30.33F
CHESTERFIELD*  NOT AVBL
HANOVER        SUNNY     64  36  35 NE13      30.36F
TAPPAHANNOCK*  SUNNY     61  33  34 NE10G18   30.37F
CHARLOTTSVILLE SUNNY     62  34  35 NE8G20    30.36F
ORANGE*        MOSUNNY   63  36  36 NW10      30.38F
LOUISA*        SUNNY     64  36  34 NE12G18   30.34F
FARMVILLE*     SUNNY     66  34  30 NE17      30.30F
SOUTH HILL*    PTSUNNY   64  41  42 NE12G24   30.34S
ROANOKE RAPIDS CLOUDY    64  46  52 NE18G26   30.25F
RALEIGH        PTSUNNY   63  42  46 NE16G25   30.24F
$$

VAZ088>098-201800-
SOUTHEAST VIRGINIA

CITY           SKY/WX    TMP DP  RH WIND       PRES   REMARKS
NORFOLK        CLOUDY    54  45  71 NE21G35   30.29S
VIRGINIA BEACH CLOUDY    53  44  71 NE26G40   30.28S
NORFOLK NAVAL  CLOUDY    56  45  66 NE23G33   30.31S
WEST POINT*    MOSUNNY   65  32  28 NE14G25   30.35F
NEWPORT NEWS   LGT RAIN  62  42  47 NE20G32   30.31F
LANGLEY AFB    CLOUDY    57  46  65 NE23G32   30.32S
FORT EUSTIS    PTSUNNY   62  45  53 NE10G22   30.30S
WILLIAMSBURG*  MOSUNNY   66  45  45 NE10G22   30.33F
FRANKLIN*      CLOUDY    61  46  59 NE17G29   30.29S
WAKEFIELD      PTSUNNY   63  40  42 NE8G18    30.31F
$$

VAZ020-022-025-037-045-201800-
WESTERN AND SOUTHWEST VIRGINIA

CITY           SKY/WX    TMP DP  RH WIND       PRES   REMARKS
STAUNTON*      SUNNY     60  28  28 CALM      30.38F
HOT SPRINGS VA MOSUNNY   52  27  37 E13G20    30.38F
LYNCHBURG      SUNNY     69  30  23 NE15G23   30.33F
DANVILLE       MOSUNNY   66  34  30 NE13G22   30.30F
MARTINSVILLE   SUNNY     65  33  30 N9G20     30.32F
ROANOKE        MOSUNNY   63  31  30 E5G20     30.33F
BLACKSBURG     SUNNY     61  34  36 E14       30.33F
DUBLIN*        SUNNY     60  30  32 E6        30.32F
MARION*        SUNNY     61  33  35 E5        30.32F
HILLSVILLE*    SUNNY     59  12  15 NE7       30.32F
RICHLANDS*     SUNNY     66  30  25 CALM      30.28F
WISE*          SUNNY     64  27  24 S5        30.28F
ABINGDON*      SUNNY     65  31  28 E5        30.27F
$$

MDZ021>025-VAZ099-100-201800-
SOUTHERN MARYLAND AND THE DELMARVA PENINSULA

CITY           SKY/WX    TMP DP  RH WIND       PRES   REMARKS
PATUXENT RIVER PTSUNNY   62  34  35 E14G23    30.38F
BAY BRIDGE APT FAIR      59  34  38 E13       30.42F
LEONARDTOWN    SUNNY     59  34  38 NE8G17    30.40F
DOVER          PTSUNNY   55  37  51 E14G21    30.41F
GEORGETOWN     SUNNY     55  38  52 NE22G28   30.43F
EASTON         PTSUNNY   59  37  44 E15G23    30.45F
CAMBRIDGE      MOSUNNY   61  34  36 NE15G24   30.39F
SALISBURY      SUNNY     59  38  45 E22G29    30.39F
OCEAN CITY     MOSUNNY   53  42  66 NE16G26   30.40S
WALLOPS ISLAND MOSUNNY   56  44  64 NE24G33   30.38S
ACCOMACK*      MOSUNNY   55  37  50 E24G32    30.35S
$$

NCZ012>017-030>032-201800-
EASTERN NORTH CAROLINA

CITY           SKY/WX    TMP DP  RH WIND       PRES   REMARKS
ELIZABETH CITY LGT RAIN  52  48  87 N23G38    30.23S FOG
AHOSKIE*       CLOUDY    60  47  63 NE17G26   30.26S
EDENTON*       LGT RAIN  54  52  95 NE17G30   30.21F
CURRITUCK*     LGT RAIN  52  46  82 NE24G33   30.24F
KILL DEVIL HLS RAIN      50  49  97 N14G22    30.16S
MANTEO         LGT RAIN  51  51  98 NE21G26   30.16S
CAPE HATTERAS  LGT RAIN  56  56 100 NE10G22   30.06F FOG
GOLDSBORO      CLOUDY    60  50  71 NE20G28   30.16F
WASHINGTON     CLOUDY    58  54  85 NE17G25   30.18F
GREENVILLE     LGT RAIN  55  54  94 NE14G22   30.21F
NEW BERN       RAIN      57  54  88 N18G28    30.13F FOG
WILMINGTON     LGT RAIN  57  54  89 N21G26    30.07F
$$

VAZ048-201800-
ELSEWHERE

CITY           SKY/WX    TMP DP  RH WIND       PRES   REMARKS
HARRISBURG PA  MOSUNNY   61  37  41 SE5       30.41F
BALTIMORE      PTSUNNY   55  34  45 E9        30.43F
ANNAPOLIS      PTSUNNY   56  35  45 VRB6      30.42F
ANDREWS AFB    PTSUNNY   58  36  43 E14       30.40F
WILMINGTON DE  MOSUNNY   56  31  38 VRB6      30.46F
PHILADELPHIA   PTSUNNY   57  29  34 NE9       30.47F
WILDWOOD NJ*   MOSUNNY   52  36  54 NE18G26   30.45F
ATLANTIC CITY  MOSUNNY   51  29  42 E17       30.46F
HENDERSON NC   PTSUNNY   63  37  38 NE14G23   30.27F
GREENSBORO     PTSUNNY   66  31  27 NE16G29   30.27F
ROCKY MOUNT    CLOUDY    62  47  57 N22G31    30.22F
FAYETTEVILLE   CLOUDY    60  44  55 N16G25    30.19S
CHARLOTTE      MOSUNNY   65  33  30 NE15G24   30.26F
$$

VAZ100-201800-
MARINE

STATION/POSITION TIME  TEMP    WIND        PRES    WAVE   SWELL
                       AIR SEA DIR/SP/G            HT/PER HT/PER
                 (UTC) (F)     (DEG/KT/KT) (MB)    (FT/S) (FT/S)
44066 TX TWR #4  1700   44 44   60/ 19/ 23 1030.2F   8/ 7   2/13
CAPE MAY NJ      1700   51 53   70/ 15/ 23 1030.5F
LEWES DE         1700   47 51   60/ 20/ 23 1029.9F
15NM E FENWICK I 1700   47 46              1029.2F   7/ 9
OCEAN-CITY-INLET 1700   49 48   50/  8/ 15 1029.2S
WACHAPREAGUE VA  1700   52 52   40/ 28/ 35 1027.2S
THOMAS POINT MD  1700   54 53   90/ 11/ 13 1030.4F
GOOSES REEF MD   1700   54      80/ 14/ 16 1031.0F
COVE POINT MD    1700   55      40/ 14/ 15 1029.0S
SOLOMONS ISLAND  1700      53                N/A
BISHOPS HEAD MD  1700   58 57   40/ 13/ 17 1028.3R
PINEY POINT MD   1700          100/ 15/ 17   N/A
POTOMAC MD       1700   54      50/ 14/ 17 1028.0F
CAMBRIDGE MD     1700   55 56   60/ 13/ 18 1028.9F
LEWISETTA VA     1700   56 54   50/ 10/ 15 1028.3S
RAPPAHANNOCK LGT 1700           40/ 19/ 21 1027.5S
STINGRAY PT      1700   54      50/ 17/ 23 1027.6R
YORK RVR RNG VA  1700   54      50/ 24/ 28 1026.0S
YORKTOWN VA      1700   56 54   40/ 21/ 26 1026.5S
JAMESTOWN VA     1700   59      60/ 12/ 19   N/A
DOMINION TERM VA 1700   56      30/ 12/ 20 1026.3R
KIPTOPEKE VA     1700      52   50/ 17/ 25   N/A
CHES BAY BRIDGE  1700   52 51   30/ 30/ 34 1025.0F
CAPE HENRY VA    1700   50      30/ 28/ 34   N/A
CHESAPEAKE LGHT  1600   50      40/ 32/ 35 1024.6R
WILLOUBY STN VA  1700   53      40/ 24/ 28 1025.2S
S CRANEY ISL VA  1700           10/ 24/ 32 1025.7F
CAPE HENRY BUOY  1700      47                N/A     8/ 9   2/11
1ST LANDING BUOY 1700      46                N/A     8/ 9   5/ 9
64NM E OF VA BCH 1700   54 49   40/ 21/ 25 1021.9F  13/10   8/10
DUCK PIER NC     1700   49 49   20/ 27/ 32 1021.0F
44100 DUCK FRF   1700      48                N/A    10/ 9   3/11
44056 DUCK FRF   1700      47                N/A    10/10   3/11
OREGON INLET NC  1700   51 51   10/ 13/ 19 1020.2F
HATTERAS NC      1700   57 56   30/ 14/ 21 1018.1F
DIAMOND SHLS NC  1700   68 76   70/ 31/ 39 1015.0F  18/11  11/11
CAPE LOOKOUT NC  1600   58      10/ 24/ 29 1016.8F
FRYING PAN SHLS  1700   59 69   20/ 33/ 39 1014.0F  10/ 7   3/11
$$



USA.gov is the U.S. government's official web portal to all federal, state and local government web resources and services.